User: anonymous   Login
Location: Unspecified
(0.0000°N, 0.0000°E)
Time: 02:00:39
(UTC+01:00)
Language:

Cosmos 1515 Rocket - Orbit

View from above orbital plane
View from above orbital plane
View from above satellite
View from above satellite

Ground track
Ground track

The orbit data is extracted from the following two-line orbital elements,

1 14552U 83122B   17055.83769007  .00000127  00000-0  12547-4 0  9994
2 14552  82.5264 181.8016 0017652 164.9804 195.1939 14.83384506792528
Epoch (UTC): 24 February 2017 20:06:16
Eccentricity: 0.0017652
inclination: 82.5264°
perigee height: 606 km
apogee height: 631 km
right ascension of ascending node: 181.8016°
argument of perigee: 164.9804°
revolutions per day: 14.83384506
mean anomaly at epoch: 195.1939°
orbit number at epoch: 79252

The dashed part of the orbit path shows where the satellite is in the earth's shadow,  

DLR